Weather in Ahtopol

Bulgaria     42°05′51″N   27°56′07″E
temp.,
°C
wind,
m/s
gust,
m/s
humid.,
%
clouds,
%
prec.,
mm/h
press.,
hPa
HPBL,
m
17 may, tue
tue1700:00+14sw22795 0.0 101916
03:00+13sw22770 0.0 101822
06:00+13w22804 0.0 101823
09:00+18se11665 0.0 1018194
12:00+20se33535 0.0 1018534
15:00+20se44526 0.0 1016398
18:00+19sse356210 0.0 1015148
21:00+16s347896 0.0 101459
18 may, wed
wed1800:00+16ssw22805 0.0 101329
03:00+16sw237883 0.0 101155
06:00+15nw1179100 0.0 101112
09:00+19nnw277682 0.3 1013426
12:00+12n101292100 1.3 1018924
15:00+10n81191100 3.3 1021909
18:00+11nne71072100 0.8 1023929
21:00+13nne3659100 0.8 1024657
19 may, thu
thu1900:00+12n596750 0.0 1026906
03:00+13n710629 0.0 10261223
06:00+11n69682 0.0 1028932
09:00+14n8126613 0.1 10291502
12:00+15nne710573 0.0 10301470
15:00+16ne58531 0.0 10291165
18:00+15ene46580 0.0 1028669
21:00+12ene24755 0.0 1029274
20 may, fri
fri2000:00+10nw13800 0.0 1029241
03:00+9nw23850 0.0 102891
06:00+9nw34882 0.0 1028116
09:00+15ne46655 0.0 1028810
12:00+17ene46560 0.0 1028920
15:00+17ene45540 0.0 1027777
18:00+16ne34580 0.0 1025519
21:00+12ne12810 0.0 1025125
21 may, sat
sat2100:00+10w11820 0.0 102425
03:00+9wnw22880 0.0 102243
06:00+9wnw22879 0.0 102156
09:00+15nne22605 0.0 1020317
12:00+18ese32520 0.0 1019476
15:00+18ese43510 0.0 1017425
18:00+18se33550 0.0 1015233
21:00+13s23730 0.0 101548